Regional Weather Roundup
Issued by NWS

Home | Current Version | Previous Version | Graphics & Text | Print | Product List | Glossary On
Versions: 1 2 3 4 5 6 7 8 9 10 11 12 13 14 15 16 17 18 19 20 21 22 23 24 25 26 27 28 29 30 31 32 33 34 35 36 37 38 39 40 41 42 43 44 45 46 47 48 49 50
000
ASUS43 KFSD 210010
RWRSD

WEATHER ROUNDUP FOR SOUTH DAKOTA
NATIONAL WEATHER SERVICE SIOUX FALLS SD
700 PM CDT SAT SEP 20 2014

NOTE: "FAIR" INDICATES FEW OR NO CLOUDS BELOW 12,000 FEET WITH NO
SIGNIFICANT WEATHER AND/OR OBSTRUCTIONS TO VISIBILITY.


SDZ001>005-009-010-012>017-210100-
NORTHWEST AND NORTH CENTRAL SOUTH DAKOTA

CITY           SKY/WX    TMP DP  RH WIND       PRES   REMARKS
BUFFALO          N/A     70  34  26 NW22G31   30.11R
FAITH            N/A     70  34  26 NW18G29   30.11R
MOBRIDGE       PTCLDY    70  43  37 NW12      30.01R
$$

SDZ012>016-024>037-041>051-057-063-072>074-210100-
SOUTHWEST AND SOUTH CENTRAL SOUTH DAKOTA

CITY           SKY/WX    TMP DP  RH WIND       PRES   REMARKS
RAPID CTY ARPT CLEAR     72  38  29 N17G24    30.19R
PIERRE         CLEAR     74  34  23 NW14G26   30.03R
CUSTER         CLEAR     66  33  29 N8        30.28R
ELLSWORTH AFB  CLEAR     72  39  29 N17       30.18R
PHILIP         CLEAR     74  38  27 N15       30.11R
PINE RIDGE     CLEAR     73  40  30 N15G21    30.18R
WINNER         FAIR      75  39  27 NW15G26   30.07R
$$

SDZ004>011-016>023-039-040-210100-
NORTHEAST SOUTH DAKOTA

CITY           SKY/WX    TMP DP  RH WIND       PRES   REMARKS
ABERDEEN       PTCLDY    67  44  43 NW14      29.97S
WATERTOWN      PTCLDY    63  45  51 NW14      29.96R
SISSETON         N/A     65  49  56 NW13      29.89S
$$

SDZ017-020-022-023-036>040-048>070-210100-
SOUTHEAST SOUTH DAKOTA

CITY           SKY/WX    TMP DP  RH WIND       PRES   REMARKS
SIOUX FALLS    PTCLDY    73  49  42 NW21G33   29.94R
HURON          CLEAR     71  40  32 NW17G26   29.98R
CHAMBERLAIN    CLEAR     73  40  30 NW15G21   30.03R
MITCHELL       PTCLDY    74  45  35 N13G25    29.98R
YANKTON        CLEAR     77  48  36 NW17G24   29.94R
$$

ABBREVIATIONS USED IN REMARKS
   TC - TEMPERATURE IN CELSIUS
  WCI - WIND CHILL INDEX
   HX - HEAT INDEX
  VSB - VISIBILITY



USA.gov is the U.S. government's official web portal to all federal, state and local government web resources and services.